Location: Lafig�re
(44.4503°N, 4.0357°E)
Time: 15:40:34
(UTC+00:00)

Terra - Pass Details

Date: 24 September 2020
Orbit: 701 x 703 km, 98.2° (Epoch: 26 October)

Event Time Altitude Azimuth Distance (km) Brightness Sun altitude
Exits shadow 21:21:44 14° 358° (N) 1,910 4.5 -37.3°
Drops below altitude 10° 21:22:26 10° 356° (N) 2,181 4.8 -37.4°
Sets 21:24:44 0° 352° (N) 3,103 5.8 -37.7°
